Bookmark and Share
Track history (hours):
 

Richard Maersk

Last reported at 2014-Apr-19 06:33 UTC. Time now 2014-Apr-19 07:02 UTC.
Position N 54°14' E 004°45'.

Length 171 m; draft 6.6 m.

Type: Ship. MMSI: 219967000.

NotesDate/timePositionNaut miles runAvg speedWind from/ knotsBaromVisibWave heightAir tempDewpointWater temp
2014-Apr-19 06:33N 54°14' E 004°45'171 6.8
2014-Apr-18 05:17N 51°43' E 002°31'6 8.5
2014-Apr-18 04:33N 51°38' E 002°25'9 8.9
2014-Apr-18 03:33N 51°31' E 002°16'9 9.2
2014-Apr-18 02:33N 51°23' E 002°07'9 8.8
2014-Apr-18 01:32N 51°14' E 002°06'10 9.8
2014-Apr-18 00:33N 51°10' E 001°53'9 9.3
2014-Apr-17 23:34N 51°04' E 001°41'8 7.6
2014-Apr-17 22:33N 50°58' E 001°33'38 6.3
2014-Apr-17 16:33N 50°30' E 000°55'8 8.3
2014-Apr-17 15:33N 50°27' E 000°42'9 8.7
2014-Apr-17 14:33N 50°24' E 000°29'8 8.3
2014-Apr-17 13:33N 50°22' E 000°17'11 9.0
2014-Apr-17 12:17N 50°20' W 000°01'3914.5
2014-Apr-17 09:33N 50°09' W 001°00'1717.1
2014-Apr-17 08:33N 50°04' W 001°26'1514.1
2014-Apr-17 07:29N 50°00' W 001°49'1410.8
2014-Apr-17 06:11N 49°57' W 002°10'6 8.8
2014-Apr-17 05:27N 49°55' W 002°19'7 7.8
2014-Apr-17 04:33N 49°53' W 002°30'7 6.8
2014-Apr-17 03:33N 49°51' W 002°40'  

Dump ship's entire track history

sailing weather and tide predictions

Richard Maersk — OYIZ2 — position and weather